Theta_e
335 336 338 338 338 338 337 336 335 335 335 334 332 331 330 329 329 329 330 330 330 327 329 332 331 331 329 329 329 330 331 331 331 331 330 325 327 327 323 320 322 323 322
335 335 336 337 337 334 333 333 334 335 335 335 334 333 331 330 329 329 329 331 331 328 328 331 330 331 329 329 328 328 330 331 331 331 330 327 327 327 326 320 322 322 322
335 334 335 334 333 332 332 331 332 333 333 335 335 335 333 332 331 330 330 331 332 331 329 330 331 331 330 329 328 327 329 330 331 331 330 328 327 328 327 322 321 322 321
326 328 331 335 334 333 333 334 333 333 333 333 332 333 333 334 333 332 331 332 332 332 330 332 332 331 331 328 328 327 328 329 330 330 330 329 326 326 327 325 321 321 321
329 330 330 329 328 333 331 334 335 335 333 332 332 332 332 334 335 333 331 332 333 333 332 332 332 332 331 329 328 327 327 327 327 329 329 328 326 324 327 327 322 321 320
328 330 331 331 331 330 330 329 330 330 334 334 334 331 331 332 333 333 332 332 332 333 333 332 331 332 332 330 329 327 327 327 327 327 327 328 325 325 326 327 325 322 321
321 326 326 328 329 329 329 330 329 328 325 332 333 331 330 330 330 332 332 330 330 331 333 333 332 331 331 331 331 329 327 327 327 327 326 326 327 327 326 325 326 323 322
311 313 315 318 323 328 329 328 327 327 325 327 331 330 330 329 329 328 329 328 328 329 331 334 333 331 329 330 330 329 328 327 327 327 326 326 325 325 325 325 327 324 323
310 310 310 311 313 319 324 329 329 326 325 325 331 330 330 329 329 329 328 327 326 327 328 329 332 331 328 327 328 327 328 329 327 328 326 325 324 324 325 325 327 324 324
305 306 308 309 310 310 313 317 326 326 326 326 324 325 327 328 327 326 325 324 326 324 325 327 329 330 330 328 327 326 326 327 328 328 326 325 323 323 325 326 325 326 324
305 305 305 306 307 309 310 311 315 322 327 325 329 328 327 327 326 324 325 325 325 321 323 325 328 329 329 328 327 327 325 326 327 327 326 325 322 322 323 325 327 326 326
305 305 306 306 306 308 309 310 310 311 314 319 325 328 330 327 326 326 325 323 322 322 322 324 326 327 329 329 328 328 326 325 326 327 326 325 322 322 322 323 325 327 325
305 306 306 307 307 307 309 309 310 310 311 312 316 325 329 329 328 328 325 324 322 322 322 322 322 325 325 327 328 326 326 325 326 327 326 325 322 321 325 326 325 328 326
304 305 305 306 308 308 308 310 311 311 311 311 312 315 325 329 330 328 328 326 324 324 323 322 322 321 326 323 322 322 324 324 326 326 326 324 322 321 323 324 326 327 326
298 300 302 303 306 308 309 309 309 311 312 312 311 312 315 325 326 329 328 327 326 324 324 322 321 321 325 326 325 322 322 322 324 325 326 324 323 321 323 324 324 323 322
295 296 297 298 302 307 309 309 308 308 310 314 313 312 312 314 324 328 328 327 326 326 324 324 324 325 326 327 327 325 323 322 324 324 325 325 323 323 322 319 320 322 322
294 295 295 296 297 300 305 307 308 306 307 309 312 312 312 313 317 323 326 328 327 327 326 325 326 326 325 325 327 326 324 324 324 324 325 326 324 324 323 321 321 321 322
292 292 292 294 295 297 298 300 304 306 307 309 312 314 315 315 315 322 324 326 327 328 327 327 326 326 326 326 327 327 325 324 325 324 325 326 326 324 325 324 324 324 324
290 290 291 291 292 293 295 297 299 302 306 309 311 312 313 315 317 316 319 320 327 327 325 327 326 324 326 328 327 325 325 324 325 325 325 325 326 326 325 325 325 324 323
290 290 290 289 290 291 292 294 298 299 304 306 310 311 313 315 316 318 318 319 326 327 324 324 324 323 325 327 327 326 325 325 326 325 325 325 324 325 324 324 324 323 323
289 289 289 288 288 289 289 291 296 299 303 308 309 309 311 314 316 316 317 320 319 324 325 323 325 326 324 325 326 326 325 325 325 325 325 324 324 323 323 322 322 322 322
291 290 289 287 287 288 289 290 293 296 300 305 303 307 312 313 314 315 317 319 322 324 323 322 326 323 323 324 324 325 325 324 324 324 324 324 324 323 322 320 322 322 321
291 291 291 290 289 289 289 289 291 293 295 296 299 303 308 309 312 315 317 317 321 323 323 322 322 322 322 322 324 325 325 324 322 324 324 323 323 323 322 321 321 319 320
288 291 292 291 290 289 291 291 291 291 291 290 293 296 300 306 310 310 315 313 320 322 322 322 323 324 323 322 322 325 323 322 322 323 324 323 322 322 322 321 320 319 320
284 283 284 284 287 290 290 291 293 292 292 290 291 293 294 299 299 303 305 307 309 312 312 313 317 318 321 323 322 322 322 322 322 321 322 321 321 320 319 319 318 317 318
282 283 282 282 282 282 283 287 291 294 294 292 291 292 293 296 298 300 301 300 303 300 300 300 304 304 302 317 319 319 319 319 320 321 318 318 318 318 317 317 316 316 316
Wind_Speed
24 26 29 30 29 28 27 27 27 26 26 24 23 23 24 23 23 24 24 23 23 22 22 21 20 16 16 17 18 20 22 22 23 24 24 24 24 26 24 24 23 23 21
23 26 29 29 28 27 26 26 28 29 29 28 28 27 26 27 26 26 26 24 24 24 23 24 20 20 17 18 18 21 22 22 22 25 24 23 24 27 27 26 25 25 22
28 29 29 29 26 23 25 25 27 28 30 31 31 31 30 30 29 28 28 27 25 25 24 24 21 19 18 20 20 21 22 21 23 25 24 24 23 26 29 28 28 26 24
32 40 38 29 26 26 25 22 25 26 29 30 33 33 32 31 33 30 30 30 27 26 25 23 22 22 21 21 21 21 21 21 22 24 24 26 25 28 34 31 30 28 26
27 35 42 46 52 35 30 26 22 23 30 31 37 35 35 34 32 31 30 30 28 27 26 26 25 23 24 23 23 23 23 22 23 23 24 26 25 26 27 32 32 31 29
19 23 30 36 39 39 37 36 36 28 27 29 37 35 36 35 32 31 30 29 30 28 27 26 26 26 26 26 26 25 25 24 24 24 23 25 27 26 26 32 34 35 32
19 22 21 22 24 29 34 44 48 52 61 35 35 33 37 33 30 27 31 32 34 32 30 29 28 28 28 28 28 28 27 27 26 25 25 25 28 30 30 34 40 40 37
16 19 21 21 24 26 26 30 37 43 54 41 33 29 32 33 31 26 31 33 33 33 33 33 32 31 30 31 30 29 30 29 28 27 25 26 25 27 28 33 44 41 39
18 20 20 20 22 26 26 27 30 31 46 45 26 27 15 21 19 23 35 33 33 35 36 35 35 34 32 31 31 30 31 31 30 29 28 27 26 27 31 32 38 42 41
20 21 22 21 22 24 25 25 24 30 44 48 50 54 48 38 12 16 32 40 39 42 37 38 39 37 35 34 33 32 31 32 32 31 31 29 28 28 31 36 40 44 46
22 23 27 25 23 23 25 26 28 31 36 52 34 43 48 49 45 37 31 30 48 41 41 35 40 42 38 37 35 34 32 32 33 31 32 30 29 28 33 39 43 46 49
25 23 24 30 28 25 25 26 28 31 34 37 38 32 38 37 38 40 40 42 42 52 45 41 34 33 43 42 39 37 34 33 33 31 31 30 29 31 31 37 46 54 50
27 25 24 24 29 29 26 27 29 30 33 37 37 36 34 42 44 44 49 46 42 51 44 52 48 33 34 40 41 38 36 34 33 32 31 30 29 27 26 30 46 54 50
28 27 26 26 25 29 28 27 29 32 33 35 39 39 37 36 46 45 46 46 34 46 49 53 52 42 34 31 34 36 35 34 34 33 31 31 27 22 19 13 35 48 40
27 26 26 27 26 24 26 26 29 31 33 35 37 39 44 38 43 42 44 45 44 31 43 45 55 50 42 39 34 34 34 33 34 33 31 31 28 21 19 16 19 22 28
23 24 25 25 25 23 23 26 28 27 29 32 35 37 40 47 40 45 44 48 49 48 38 39 46 42 42 41 37 36 34 33 32 33 31 32 32 24 19 17 20 28 31
22 22 22 23 23 24 24 25 27 28 29 29 31 33 36 38 46 43 47 47 54 51 51 44 42 35 33 37 35 32 35 34 32 33 32 31 34 30 27 26 24 22 23
20 19 19 19 21 23 24 25 29 30 31 31 29 29 31 35 43 45 42 47 49 50 51 44 46 46 43 43 36 34 33 35 33 31 32 31 32 33 31 32 31 31 31
19 18 18 18 20 21 21 24 29 31 33 34 33 33 33 32 35 45 51 47 47 50 50 47 43 43 41 39 37 32 32 34 34 30 31 31 31 33 32 32 32 32 32
21 21 21 22 21 20 21 23 24 23 26 30 32 33 35 36 37 35 46 51 44 45 48 46 44 42 41 40 36 36 36 36 36 34 35 34 33 34 36 37 35 35 35
26 26 26 28 26 23 23 21 16 13 15 19 19 23 29 32 32 33 40 45 46 43 44 44 38 38 40 36 39 39 39 39 38 37 35 35 36 35 34 32 34 35 36
36 37 36 36 35 29 25 24 20 14 7 1 13 19 27 30 32 35 39 43 51 48 44 40 37 38 40 42 39 43 43 38 36 37 36 37 37 34 32 33 34 32 32
37 40 44 46 43 35 28 31 31 32 32 26 14 9 7 9 14 22 32 34 41 39 35 36 39 38 37 43 41 44 43 39 38 40 39 38 37 37 36 34 34 33 33
36 37 40 44 46 47 41 37 39 39 39 40 36 28 20 12 7 1 8 18 22 25 30 35 37 39 40 41 43 41 37 37 37 36 39 42 41 38 35 33 35 34 34
36 39 40 41 42 44 44 45 45 45 46 46 44 41 33 29 22 17 8 7 4 9 14 21 30 32 36 41 40 37 35 32 36 34 40 40 34 38 31 29 31 34 32
35 36 39 41 42 45 45 43 44 46 46 46 44 43 44 37 30 25 25 24 20 18 13 10 3 4 5 28 32 30 31 34 39 37 34 40 36 31 26 29 31 30 27
Wind_Direction
246 248 247 243 242 243 244 246 247 248 248 247 246 245 245 244 242 245 248 243 240 231 230 232 235 246 240 227 225 227 229 229 225 220 224 226 219 217 218 218 214 215 214
250 255 257 255 252 252 254 257 257 256 255 254 253 251 250 249 246 246 246 246 243 237 232 231 242 246 246 236 233 231 231 233 232 226 224 218 229 222 221 221 218 219 218
248 255 260 261 257 251 254 256 259 261 262 261 260 259 256 253 250 249 248 246 244 240 237 238 243 237 245 242 235 236 234 233 234 232 232 233 238 226 226 223 221 220 222
273 278 280 260 262 252 247 248 258 262 262 264 264 260 261 258 254 252 252 246 242 237 238 242 244 244 244 240 239 235 237 240 235 235 238 237 239 238 232 223 223 223 223
254 257 255 250 264 266 262 258 256 260 263 264 265 262 259 258 256 252 252 245 242 239 241 243 246 247 245 242 241 239 235 239 238 237 239 242 241 245 233 216 222 227 224
269 265 257 257 259 258 259 248 253 261 282 277 276 268 265 262 258 251 253 253 249 245 246 247 248 246 243 240 242 242 238 240 240 238 239 242 238 241 239 231 227 227 226
265 268 266 264 265 261 261 254 256 253 250 267 276 271 264 260 258 252 254 255 254 256 255 253 251 250 246 244 243 242 240 241 243 243 242 244 243 248 246 241 234 226 226
277 270 270 266 266 267 263 265 252 264 234 245 270 270 273 264 251 248 253 255 260 258 256 256 255 250 245 245 245 242 241 242 244 245 246 243 250 252 252 248 242 216 225
273 273 271 265 258 257 257 251 261 249 235 242 255 255 260 249 259 246 249 244 251 259 262 258 255 249 244 241 242 241 244 246 242 247 248 250 253 252 248 245 234 221 223
285 279 276 270 262 257 255 251 251 242 237 244 249 255 259 261 241 281 268 237 246 249 264 256 258 252 246 244 241 240 243 244 245 246 248 253 254 254 248 243 236 231 223
288 282 281 279 269 262 257 251 242 239 233 242 252 237 243 243 253 242 236 253 243 237 257 258 254 254 250 247 244 242 240 241 245 245 245 251 253 257 250 244 242 234 228
293 288 279 279 279 271 262 256 249 241 237 235 234 246 243 231 231 228 227 235 224 231 247 254 256 260 253 249 247 245 242 242 243 247 244 251 254 262 266 249 240 238 225
297 294 288 280 278 277 269 263 258 250 245 243 240 232 245 239 236 240 224 227 228 235 241 239 249 259 267 252 248 245 242 241 241 242 242 246 252 265 272 265 231 219 219
302 298 295 290 282 279 276 270 266 264 256 248 245 238 234 244 233 243 240 232 225 235 242 243 239 249 257 260 249 245 241 238 238 237 238 235 248 260 267 280 221 203 212
311 304 297 296 291 280 277 276 275 272 267 260 250 241 232 237 240 240 242 239 233 229 240 239 242 248 252 254 256 245 238 237 234 234 235 230 240 246 243 239 209 210 207
317 310 304 297 293 286 279 278 274 275 275 268 261 247 238 230 238 241 242 239 238 233 237 244 249 251 254 256 257 250 239 238 234 235 234 229 232 234 226 212 213 221 224
324 319 314 305 299 296 288 282 279 275 270 269 263 253 242 234 228 239 243 236 237 236 235 241 249 252 249 255 252 245 237 235 231 231 230 227 229 231 227 224 226 229 230
339 332 326 322 315 305 297 289 282 275 269 264 261 253 251 239 232 228 235 239 238 240 240 239 246 249 253 252 250 243 240 234 228 229 229 226 227 231 232 233 233 235 238
2 358 351 347 336 329 317 298 287 277 267 257 250 250 247 245 243 234 233 236 239 242 245 242 244 251 254 251 246 234 232 227 226 225 224 225 225 227 232 236 236 236 238
20 17 15 12 1 352 336 316 307 298 280 265 250 251 248 247 246 248 232 233 237 235 242 246 242 245 250 249 245 233 225 223 223 225 220 222 224 225 230 233 231 232 235
41 37 35 30 23 17 13 355 342 314 298 268 241 252 250 245 248 251 234 237 235 230 238 243 235 238 242 242 238 235 227 221 225 227 223 224 226 226 230 231 233 235 237
49 46 44 41 35 28 37 49 47 41 24 74 210 230 234 244 248 249 238 233 235 228 232 231 226 233 244 244 241 231 222 220 218 223 224 222 221 224 228 232 236 238 239
46 46 48 47 45 40 42 55 60 63 65 64 77 101 137 197 217 224 236 231 236 223 225 235 239 243 244 249 238 232 225 225 230 226 219 223 223 223 232 238 247 248 246
48 44 44 47 46 46 44 52 61 63 64 63 59 63 67 73 72 119 250 227 222 227 231 229 230 234 240 237 228 231 230 227 225 238 220 220 219 219 227 236 249 256 253
50 49 47 46 47 45 42 44 51 57 61 59 58 60 59 64 62 61 74 72 137 200 226 224 219 216 218 224 221 222 226 229 229 226 214 219 225 226 223 237 249 254 254
52 51 49 47 45 43 44 43 42 47 51 53 55 56 57 60 65 70 77 77 82 76 67 66 360 309 320 212 213 210 219 218 225 233 225 224 214 217 225 233 239 247 247